Simultaneous Nadir Overpasses (SNOs) Predictions

Prediction of SNOs between METOP-A and NOAA-19 Satellite Orbit:

Table of predicted SNOs for the next 14.0 days since TLE Epoch: 5/6/2014
Index Date (METOP-A) Time (METOP-A) Lat,Lon (METOP-A) SZA (METOP-A ) Date (NOAA-19) Time (NOAA-19) Lat,Lon (NOAA-19) SZA (NOAA-19 ) Distance(km) Time Diff (sec)
1 05/08/2014 12:21:44 74.33, -10.23 57.13 05/08/2014 12:20:33 74.33, -11.64 57.19 42.47 71
2 05/08/2014 13:12:31 -74.06, 156.42 123.13 05/08/2014 13:11:26 -74.07, 156.31 123.11 3.47 65
3 05/08/2014 14:03:12 74.01, -36.36 56.82 05/08/2014 14:02:30 74.01, -36.31 56.82 1.37 42
4 05/08/2014 14:53:54 -73.99, 130.91 123.22 05/08/2014 14:53:28 -73.99, 131.01 123.22 2.98 26
5 05/08/2014 15:44:34 73.99, -61.75 56.78 05/08/2014 15:44:33 73.98, -61.74 56.77 1.51 1
6 05/08/2014 16:35:16 -73.97, 105.52 123.25 05/08/2014 16:35:31 -73.95, 105.58 123.27 2.28 15
7 05/08/2014 17:25:56 73.97, -87.13 56.75 05/08/2014 17:26:36 73.95, -87.17 56.71 3.38 40
8 05/08/2014 18:16:38 -73.95, 80.14 123.29 05/08/2014 18:17:34 -73.92, 80.14 123.33 3.18 56
9 05/08/2014 19:07:23 73.71,-113.11 56.48 05/08/2014 19:08:35 73.72,-112.12 56.45 31.00 72
10 05/18/2014 18:09:28 -74.61, 83.60 125.10 05/18/2014 18:08:21 -74.64, 80.70 124.99 85.79 67
11 05/18/2014 19:00:19 74.08,-110.44 54.39 05/18/2014 18:59:16 74.07,-110.54 54.39 3.16 63
12 05/18/2014 19:51:01 -74.06, 56.83 125.64 05/18/2014 19:50:12 -74.04, 56.81 125.65 2.29 49
13 05/18/2014 20:41:42 74.01,-135.95 54.31 05/18/2014 20:41:19 74.04,-135.97 54.34 2.86 23
14 05/18/2014 21:32:24 -73.99, 31.32 125.72 05/18/2014 21:32:15 -74.01, 31.37 125.70 2.49 9
15 05/18/2014 22:23:04 73.99,-161.34 54.28 05/18/2014 22:23:22 74.01,-161.40 54.29 2.36 18
16 05/18/2014 23:13:46 -73.97, 5.93 125.75 05/18/2014 23:14:18 -73.98, 5.94 125.75 0.60 32
17 05/19/2014 00:04:26 73.97, 173.27 54.25 05/19/2014 00:05:25 73.97, 173.17 54.24 3.28 59
18 05/19/2014 00:55:08 -73.95, -19.45 125.79 05/19/2014 00:56:21 -73.94, -19.50 125.80 1.52 73




NCC Satellite Simultaneous Nadir Overpasses (SNOs) Prediction Service
